Regional Weather Roundup
Issued by NWS

Home | Current Version | Previous Version | Text Only | Print | Product List | Glossary Off
Versions: 1 2 3 4 5 6 7 8 9 10 11 12 13 14 15 16 17 18 19 20 21 22 23 24 25 26 27 28 29 30 31 32 33 34 35 36 37 38 39 40 41 42 43 44 45 46 47 48 49 50

000
ASUS45 KTFX 300219
RWRMT
MONTANA HOURLY WEATHER ROUNDUP
NATIONAL WEATHER SERVICE GREAT FALLS MT
719 PM MST THU JAN 29 2015

NOTE: "FAIR" INDICATES FEW OR NO CLOUDS BELOW 12000 FEET WITH NO
SIGNIFICANT WEATHER AND/OR OBSTRUCTIONS TO VISIBILITY.

* THESE STATIONS ARE NOT UNDER NWS QUALITY CONTROL. THEY DO NOT
   REPORT WEATHER SUCH AS PRECIPITATION OR FOG.

MTZ001>007-043-300300-
WEST OF THE DIVIDE
CITY           SKY/WX    TMP DP  RH WIND       PRES   REMARKS
KALISPELL      CLEAR     18  16  92 CALM      30.36R
MISSOULA       PTCLDY    28  25  89 CALM      30.35S
BUTTE          CLOUDY    28  21  75 CALM      30.30S
MULLAN PASS    PTCLDY    32  21  64 W3        30.29R
* ANACONDA     MOCLDY    28  25  89 SW3        N/A
* ESSEX        N/A       25  22  88 N/A        N/A
* EUREKA APT   CLEAR     27  23  85 CALM      30.38S
* HAMILTON APT MOCLDY    30  25  82 SW1       30.34R
* LIBBY APT    CLEAR     28  27  96 CALM      30.40S VSB 3/4
* LINCOLN      N/A       33  20  59 S4         N/A
* LOOKOUT PASS N/A       31  25  78 N1         N/A
* POLSON       N/A       26  25  96 N/A        N/A
* RONAN APT    PTCLDY    27  27 100 N/A        N/A
* SEELEY LAKE  N/A       25  20  81 N/A        N/A
* THOMP F APT  CLEAR     27  19  72 NE4        N/A
* YAAK HILL    N/A       33  26  75 SE1        N/A
$$

MTZ008-052>055-300300-
SOUTHWEST MONTANA
CITY           SKY/WX    TMP DP  RH WIND       PRES   REMARKS
BOZEMAN        PTCLDY    27  21  78 SE6       30.30S WCI  20
DILLON         MOCLDY    30  23  75 S9        30.30R WCI  22
* W YELLOWSTON PTCLDY    24  22  92 N/A        N/A
* THREE FORKS  MOCLDY    30  30 100 N/A        N/A
* BOULDER HILL N/A       32  19  59 S7         N/A   WCI  25
* MONIDA PASS  N/A       15  15 100 SW4        N/A
* RAYNOLDS PAS N/A       23   7  50 SE8        N/A   WCI  14
* WHITEHALL    N/A       34  22  61 N5G10      N/A   WCI  29
* WISE RIVER   N/A       27  19  72 W5         N/A   WCI  21
$$

MTZ009>010-012-014-046-048-049-054-300300-
EAST SLOPES AND CENTRAL MONTANA
CITY           SKY/WX    TMP DP  RH WIND       PRES   REMARKS
CUT BANK       CLEAR     37  14  39 W20       30.18F WCI  27
GREAT FALLS    MOCLDY    41  19  41 S14       30.21R
HELENA         MOCLDY    36  27  70 SW5       30.29R WCI  32
MALMSTROM AFB  MOCLDY    41  23  49 SW14      30.21S
* CONRAD       MOCLDY    36  28  73 CALM       N/A
* DEARBORN     N/A       43  19  38 S1         N/A
* EAST GLACIER N/A       36  11  35 W18G26     N/A   WCI  26
* MONARCH      N/A       38   4  24 S7G13      N/A   WCI  33
* PENDROY      N/A       36   9  32 NW11       N/A   WCI  28
* ROGERS PASS  N/A       34  16  48 SE5G12     N/A   WCI  29
* SWEET GRASS  N/A       38  16  41 W7G15      N/A   WCI  33
* WHITE SULPH  N/A       35  20  54 S8G14      N/A   WCI  28
$$

MTZ011-013-016-021-035-040-045-047-050-051-300300-
NORTH CENTRAL MONTANA
CITY           SKY/WX    TMP DP  RH WIND       PRES   REMARKS
HAVRE          PTCLDY    28  27  96 CALM      30.19S
LEWISTOWN      MOCLDY    34  25  70 S6        30.21S WCI  29
* N BAR RANCH  CLEAR     32  21  64 N3        30.21F
* CHINOOK      PTCLDY    30  27  89 CALM      30.20S
* CHESTER      N/A       31  28  89 N4         N/A
* DENTON       N/A       40  25  55 S11        N/A   WCI  33
* GEYSER       N/A       32  22  67 S4         N/A
* JUDITH GAP   N/A       36  22  57 SE8        N/A   WCI  30
* LOMA         N/A       38  31  76 NE6        N/A   WCI  33
$$

MTZ017>020-022>027-061-062-300300-
NORTHEAST MONTANA
CITY           SKY/WX    TMP DP  RH WIND       PRES   REMARKS
GLASGOW        CLEAR     32  27  82 E13       30.23F WCI  22
GLENDIVE       CLEAR     32  21  64 S7        30.30F WCI  25
JORDAN         CLEAR     34  25  70 VRB3      30.23F
SIDNEY         CLEAR     25  19  78 CALM      30.33F
WOLF POINT     CLEAR     28  23  81 NE6       30.29F WCI  21
* BEAVER HILL  N/A       31  19  61 SE13       N/A   WCI  21
* CIRCLE       N/A       33  26  75 N/A        N/A
* LINDSAY DVD  N/A       28  21  75 SE4        N/A
* NAVAJO       N/A       24  22  92 S8         N/A   WCI  15
* PLENTYWOOD A CLEAR     25  21  85 E9        30.29F WCI  16
* POPLAR APT   CLEAR     30  25  82 N/A       30.30S
* SACO         N/A       28  28 100 E8         N/A   WCI  20
$$

MTZ028>042-056>058-300300-
SOUTHCENTRAL AND SOUTHEAST MONTANA
CITY           SKY/WX    TMP DP  RH WIND       PRES   REMARKS
BAKER          CLEAR     27  18  69 S10       30.33F WCI  18
BILLINGS       MOCLDY    41  27  58 W13       30.25S
LIVINGSTON     PTCLDY    37  21  52 NW12      30.26R WCI  29
MILES CITY     CLEAR     36  25  64 S8        30.28F WCI  30
* BIG TIMBER A MOCLDY    41  21  45 SW12      30.25S
* FORSYTH APT  CLEAR     37  25  62 SE3       30.26F
* LAUREL APT   PTCLDY    39  21  48 SW10G20    N/A   WCI  32
* ROUNDUP APT  MOCLDY    41  27  58 S5         N/A
* ALZADA       N/A       30  18  61 E6         N/A   WCI  24
* HYSHAM       N/A       43  17  35 S2G8       N/A
* LAME DEER    N/A       36  21  54 SE7        N/A   WCI  30
* REED POINT   N/A       35  27  73 W1         N/A
* ROSCOE HILL  N/A       37  14  39 S3         N/A
$$

REGIONAL REPORTS...DAKOTAS
CITY           SKY/WX    TMP DP  RH WIND       PRES   REMARKS
WILLISTON      CLEAR     27  19  72 CALM      30.34F
DICKINSON      CLEAR     25  18  75 SE9       30.34F WCI  16
BEACH          CLEAR     27  25  92 S8        30.32F WCI  19
CROSBY         CLEAR     19  19 100 SE5       30.35F WCI  12
TIOGA          CLEAR     16  16 100 SE5       30.37F WCI   8
WATFORD CITY   CLEAR     27  23  85 SE13      30.33F WCI  16
BISMARCK       CLEAR     18  16  92 SE7       30.47S WCI   9
GRAND FORKS    PTCLDY     3   0  87 N3        30.58R
FARGO          CLEAR     10   3  73 NE9       30.57R WCI  -3
BUFFALO SD     CLEAR     30  10  43 SE9       30.29F WCI  22
RAPID CITY     CLEAR     27  14  58 CALM      30.38F
$$

REGIONAL REPORTS...WYOMING/IDAHO/WASHINGTON
CITY           SKY/WX    TMP DP  RH WIND       PRES   REMARKS
GILLETTE       CLEAR     27  21  78 S8        30.29F WCI  19
SHERIDAN       CLEAR     36  23  59 S6        30.26F WCI  31
CODY           PTCLDY    30  28  92 CALM      30.29S
YELLOWSTONE LA MOCLDY    12   9  88 CALM      30.36F
SALMON         PTCLDY    21  19  92 SE3       30.39R
MULLAN PASS    PTCLDY    32  21  64 W3        30.29S
SAND POINT     FOG       30  30 100 CALM      30.38S
SPOKANE        PTCLDY    32  30  92 S3        30.36F
$$

REGIONAL REPORTS...ALBERTA
CITY           SKY/WX    TMP DP  RH WIND       PRES   REMARKS
CALGARY        N/A       37  12  36 E8        30.15R WCI  31
LETHBRIDGE     FAIR      41  16  36 W22G28    30.17F
MEDICINE HAT   N/A       30  28  92 CALM      30.16F
EDMONTON       FOG       21  19  92 S8        30.16S WCI  11
WATERTON GATE  N/A       39  16  39 SW20G28    N/A   WCI  29
CARDSTON       N/A       41  12  30 W14G20     N/A
MILK RIVER     N/A       34  19  54 N10        N/A   WCI  26
$$

REGIONAL REPORTS...SASKATCHEWAN
CITY           SKY/WX    TMP DP  RH WIND       PRES   REMARKS
SWIFT CURRENT  CLEAR     28  27  96 S13       30.17F WCI  17
REGINA         MOCLDY    16  14  92 SE14      30.31F WCI   2
VAL MARIE      N/A       27  27 100 SW6        N/A   WCI  20
ASSINIBOIA     N/A       25  21  85 SE6        N/A   WCI  18
CORONACH       N/A       25  23  92 E7         N/A   WCI  17

$$



USA.gov is the U.S. government's official web portal to all federal, state and local government web resources and services.